Erwin, NC

8:00 PM EDT on September 19, 2017 (GMT -0400)
Harnett County

Weather History for KHRJ - August, 2014

Change the Weather History Date:

Wednesday, August 27, 2014

  Actual Average Record
Temperature  
Mean Temperature 73 °F -  
Max Temperature 87 °F 88 °F 102 °F (2004)
Min Temperature 59 °F 64 °F -49 °F (2004)
Cooling Degree Days 8    
Growing Degree Days 23 (Base 50)    
Moisture  
Dew Point 60 °F    
Average Humidity 68    
Maximum Humidity 100    
Minimum Humidity 36    
Precipitation  
Precipitation 0.00 in - - ()
Sea Level Pressure  
Sea Level Pressure 30.03 in    
Wind  
Wind Speed 2 mph (North)    
Max Wind Speed 12 mph    
Max Gust Speed -    
Visibility 10 miles    
Events      
Averages and records for this station are not official NWS values.
T = Trace of Precipitation, MM = Missing Value Source: NWS Daily Summary

Daily Weather History Graph

Daily Weather History Graph

Search for Another Location

Airport or City:

Trip Planner

Search our weather history database for the weather conditions in past years. The results will help you decide how hot, cold, wet, or windy it might be!

Date:

Astronomy

Aug. 27, 2014 Rise Set
Actual Time 6:43 AM EDT 7:48 PM EDT
Civil Twilight 6:17 AM EDT 8:14 PM EDT
Nautical Twilight 5:46 AM EDT 8:46 PM EDT
Astronomical Twilight 5:13 AM EDT 9:18 PM EDT
Moon 8:32 AM EDT (8/27) 8:46 PM EDT (8/27)
Length of Visible Light 13h 57m
Length of Day
13h 05m
Waxing Crescent, 4% of the Moon is Illuminated
Aug 27
Waxing Crescent
Sep 2
First Quarter
Sep 8
Full
Sep 15
Last Quarter
Sep 24
New

Hourly Weather History & Observations

Time (EDT) Temp. Heat Index Dew Point Humidity Pressure Visibility Wind Dir Wind Speed Gust Speed Precip Events Conditions
12:15 AM 67.3 °F - 64.2 °F 90% 30.08 in 10.0 mi Calm Calm - N/A   Clear
12:35 AM 67.1 °F - 63.7 °F 89% 30.08 in 10.0 mi Calm Calm - N/A   Clear
12:55 AM 65.8 °F - 63.7 °F 93% 30.08 in 10.0 mi Calm Calm - N/A   Clear
1:15 AM 66.6 °F - 63.9 °F 91% 30.07 in 10.0 mi North 3.5 mph - N/A   Clear
1:35 AM 65.7 °F - 63.7 °F 93% 30.07 in 10.0 mi Calm Calm - N/A   Clear
1:55 AM 64.8 °F - 63.3 °F 95% 30.06 in 10.0 mi Calm Calm - N/A   Clear
2:15 AM 65.3 °F - 63.5 °F 94% 30.05 in 10.0 mi Calm Calm - N/A   Clear
2:35 AM 64.4 °F - 63.0 °F 95% 30.05 in 10.0 mi Calm Calm - N/A   Clear
2:55 AM 62.6 °F - 61.9 °F 97% 30.05 in 10.0 mi NNW 3.5 mph - N/A   Clear
3:15 AM 62.8 °F - 62.2 °F 98% 30.05 in 10.0 mi NNW 3.5 mph - N/A   Clear
3:35 AM 62.2 °F - 61.9 °F 99% 30.05 in 7.0 mi Calm Calm - N/A   Clear
3:55 AM 62.1 °F - 61.7 °F 99% 30.04 in 7.0 mi Calm Calm - N/A   Clear
4:15 AM 61.7 °F - 61.3 °F 99% 30.04 in 10.0 mi Calm Calm - N/A   Clear
4:35 AM 61.5 °F - 60.8 °F 97% 30.04 in 10.0 mi Calm Calm - N/A   Clear
4:55 AM 61.7 °F - 61.0 °F 97% 30.04 in 10.0 mi Calm Calm - N/A   Clear
5:15 AM 60.6 °F - 60.1 °F 98% 30.04 in 10.0 mi Calm Calm - N/A   Clear
5:35 AM 60.8 °F - 60.3 °F 98% 30.04 in 10.0 mi Calm Calm - N/A   Clear
5:55 AM 60.4 °F - 59.7 °F 97% 30.04 in 10.0 mi Calm Calm - N/A   Clear
6:15 AM 59.9 °F - 59.9 °F 100% 30.04 in 7.0 mi Calm Calm - N/A   Clear
6:35 AM 59.7 °F - 59.4 °F 99% 30.05 in 10.0 mi Calm Calm - N/A   Clear
6:55 AM 59.5 °F - 59.4 °F 99% 30.06 in 10.0 mi Calm Calm - N/A   Clear
7:15 AM 60.4 °F - 60.3 °F 99% 30.06 in 10.0 mi Calm Calm - N/A   Clear
7:35 AM 61.3 °F - 60.8 °F 98% 30.06 in 10.0 mi Calm Calm - N/A   Clear
7:55 AM 63.1 °F - 61.9 °F 96% 30.06 in 10.0 mi Calm Calm - N/A   Clear
8:15 AM 65.1 °F - 63.1 °F 93% 30.06 in 10.0 mi Calm Calm - N/A   Clear
8:35 AM 66.9 °F - 62.4 °F 85% 30.07 in 10.0 mi NNW 3.5 mph - N/A   Clear
8:55 AM 68.9 °F - 61.9 °F 78% 30.07 in 10.0 mi Calm Calm - N/A   Clear
9:15 AM 70.3 °F - 60.1 °F 70% 30.06 in 10.0 mi North 3.5 mph - N/A   Clear
9:35 AM 72.3 °F - 59.2 °F 63% 30.06 in 10.0 mi NNE 4.6 mph - N/A   Clear
9:50 AM 73.0 °F - 59.0 °F 61% 30.06 in 10.0 mi NNE 4.6 mph - N/A   Clear
10:15 AM 75.0 °F - 58.8 °F 57% 30.07 in 10.0 mi NNE 5.8 mph - N/A   Clear
10:35 AM 77.0 °F - 58.3 °F 52% 30.07 in 10.0 mi NE 11.5 mph - N/A   Clear
10:55 AM 78.4 °F - 56.8 °F 47% 30.07 in 10.0 mi NE 10.4 mph - N/A   Clear
11:15 AM 78.6 °F - 55.8 °F 45% 30.07 in 10.0 mi NE 10.4 mph - N/A   Clear
11:35 AM 79.5 °F - 55.6 °F 44% 30.06 in 10.0 mi NE 8.1 mph - N/A   Clear
11:55 AM 80.2 °F 80.2 °F 54.3 °F 41% 30.06 in 10.0 mi NNE 6.9 mph - N/A   Clear
12:15 PM 81.1 °F 80.8 °F 54.9 °F 40% 30.06 in 10.0 mi NNE 5.8 mph - N/A   Clear
12:35 PM 81.7 °F 81.3 °F 55.9 °F 41% 30.05 in 10.0 mi NE 5.8 mph - N/A   Clear
12:55 PM 81.7 °F 81.3 °F 56.1 °F 41% 30.05 in 10.0 mi North 4.6 mph - N/A   Clear
1:15 PM 82.8 °F 82.0 °F 55.6 °F 39% 30.04 in 10.0 mi North 4.6 mph - N/A   Clear
1:35 PM 82.4 °F 81.7 °F 54.9 °F 39% 30.03 in 10.0 mi North 3.5 mph - N/A   Clear
1:55 PM 83.5 °F 82.6 °F 56.1 °F 39% 30.02 in 10.0 mi North 3.5 mph - N/A   Clear
2:15 PM 86.5 °F 85.3 °F 56.7 °F 36% 30.02 in 10.0 mi NNE 9.2 mph - N/A   Clear
2:35 PM 85.1 °F 84.1 °F 56.7 °F 38% 30.01 in 10.0 mi NNW 4.6 mph - N/A   Clear
2:55 PM 86.4 °F 85.2 °F 57.4 °F 37% 30.01 in 10.0 mi North 4.6 mph - N/A   Clear
3:15 PM 86.4 °F 85.6 °F 58.5 °F 39% 30.00 in 10.0 mi North 3.5 mph - N/A   Clear
3:35 PM 86.0 °F 85.4 °F 59.2 °F 40% 29.99 in 10.0 mi NE 6.9 mph - N/A   Clear
3:55 PM 86.5 °F 85.9 °F 58.6 °F 39% 29.99 in 10.0 mi North 3.5 mph - N/A   Clear
4:15 PM 86.7 °F 85.6 °F 57.2 °F 37% 29.98 in 10.0 mi North 6.9 mph - N/A   Clear
4:35 PM 87.8 °F 86.7 °F 57.7 °F 36% 29.98 in 10.0 mi NNE 4.6 mph - N/A   Clear
4:55 PM 86.9 °F 85.9 °F 57.9 °F 37% 29.98 in 10.0 mi North 3.5 mph - N/A   Clear
5:15 PM 87.1 °F 85.9 °F 57.4 °F 36% 29.97 in 10.0 mi Calm Calm - N/A   Clear
5:35 PM 86.7 °F 85.9 °F 58.1 °F 38% 29.97 in 10.0 mi North 4.6 mph - N/A   Clear
5:55 PM 86.7 °F 85.9 °F 58.1 °F 38% 29.97 in 10.0 mi North 4.6 mph - N/A   Clear
6:15 PM 86.5 °F 85.6 °F 57.9 °F 38% 29.97 in 10.0 mi NNW 3.5 mph - N/A   Clear
6:35 PM 85.5 °F 84.5 °F 57.4 °F 38% 29.97 in 10.0 mi North 3.5 mph - N/A   Clear
6:55 PM 85.3 °F 84.6 °F 58.1 °F 40% 29.98 in 10.0 mi Calm Calm - N/A   Clear
7:15 PM 82.8 °F 82.7 °F 58.8 °F 44% 29.97 in 10.0 mi Calm Calm - N/A   Clear
7:35 PM 80.4 °F 81.2 °F 60.3 °F 50% 29.97 in 10.0 mi Calm Calm - N/A   Clear
7:55 PM 77.2 °F - 62.6 °F 61% 29.98 in 10.0 mi Calm Calm - N/A   Clear
8:15 PM 76.5 °F - 61.5 °F 60% 29.98 in 10.0 mi Calm Calm - N/A   Clear
8:35 PM 75.2 °F - 62.4 °F 64% 29.98 in 10.0 mi Calm Calm - N/A   Clear
8:55 PM 75.4 °F - 61.9 °F 63% 29.98 in 10.0 mi Calm Calm - N/A   Clear
9:15 PM 71.1 °F - 63.5 °F 77% 29.99 in 10.0 mi Calm Calm - N/A   Clear
9:35 PM 71.4 °F - 62.6 °F 74% 30.00 in 10.0 mi Calm Calm - N/A   Clear
9:55 PM 69.8 °F - 62.8 °F 78% 30.00 in 10.0 mi Calm Calm - N/A   Clear
10:15 PM 70.9 °F - 63.0 °F 76% 29.99 in 10.0 mi Calm Calm - N/A   Clear
10:35 PM 70.0 °F - 62.8 °F 78% 30.00 in 10.0 mi Calm Calm - N/A   Clear
10:55 PM 68.5 °F - 62.6 °F 81% 30.00 in 10.0 mi Calm Calm - N/A   Clear
11:15 PM 67.5 °F - 62.4 °F 84% 29.99 in 10.0 mi Calm Calm - N/A   Clear
11:35 PM 67.8 °F - 63.9 °F 87% 29.99 in 10.0 mi Calm Calm - N/A   Clear
11:55 PM 66.4 °F - 65.1 °F 96% 29.99 in 10.0 mi Calm Calm - N/A   Clear